Skip Page Navigation
NASA JPL Caltech
NASA Logo - Jet Propulsion Laboratory + View the NASA Portal
+ Center for Near-Earth Object Studies
JPL Home Earth Solar System Stars & Galaxies Technology
JPL Solar System Dynamics
BODIES ORBITS EPHEMERIDES TOOLS PHYSICAL DATA DISCOVERY FAQ SITE MAP
JPL Small-Body Database Browser
Search: [ help ]  
(2016 AY165)
Classification: Mars-crossing Asteroid          SPK-ID: 3740095
Ephemeris | Orbit Diagram | Orbital Elements | Mission Design | Physical Parameters | Close-Approach Data ]

[ show orbit diagram ]
Orbital Elements at Epoch 2459200.5 (2020-Dec-17.0) TDB
Reference: JPL 8 (heliocentric ecliptic J2000)
 Element Value Uncertainty (1-sigma)   Units 
e .5417971838962241 0.00012692  
a 3.034427858743054 0.00090556 au
q 1.390383390139818 3.0352e-05 au
i 22.43855764461292 0.00076388 deg
node 288.9525610149562 0.0017233 deg
peri 228.266086345472 0.0019981 deg
M 334.637606496366 0.14906 deg
tp 2459336.519566981145
(2021-May-02.01956698)
0.86033 TDB
period 1930.694912772964
5.29
0.86427
0.002366
d
yr
n .1864613604243404 8.3468e-05 deg/d
Q 4.678472327346289 0.0013962 au
  Orbit Determination Parameters
   # obs. used (total)      27  
   data-arc span      142 days  
   first obs. used      2016-01-11  
   last obs. used      2016-06-01  
   planetary ephem.      DE441  
   SB-pert. ephem.      SB441-N16  
   condition code      6  
   norm. resid. RMS      .62786  
   source      ORB  
   producer      Otto Matic  
   solution date      2021-Apr-15 15:53:34  

Additional Information
 Earth MOID = .484658 au 
 Jupiter MOID = 1.14107 au 
 T_jup = 2.901 
[ show covariance matrix ]

Ephemeris | Orbit Diagram | Orbital Elements | Mission Design | Physical Parameters | Close-Approach Data ]

Physical Parameter Table
Parameter Symbol Value Units Sigma Reference Notes
absolute magnitude H 19.2   n/a MPO365036  

[ show close-approach data ]
Ephemeris | Orbit Diagram | Orbital Elements | Mission Design | Physical Parameters | Close-Approach Data ]
ABOUT SSD CREDITS/AWARDS PRIVACY/COPYRIGHT GLOSSARY LINKS
FirstGov 2021-May-13 07:41 UT
(server date/time)  
NASA Home Page
Site Manager:   Ryan S. Park
Webmaster  Alan B. Chamberlin